STARLINK-36924, 68054

Orbit data source: Space-Track

STARLINK-36924, 68054 is a payload satellite owned by SpaceX/Seattle (US) in LEO that was launched on Mon, 02 Mar 2026 UTC via an FALCON 9 launch vehicle from the Air Force Eastern Test Range (AFETR). Payload-class satellites include a variety of spacecraft equipped with specific instruments for various scientific and technological missions. These include communications satellites like Starlink; space stations such as the ISS; scientific satellites like the Hubble; Earth observation satellites from companies like Planet Labs, Umbra, and HawkEye 360; GPS; miniature CubeSats for education and research; and military/defense satellites.

Loading next visibility...
Identifier
68054, 2026-041Q
Orbit
LEO
Country
Flag of USUS
Related business
Manufacturer
SpaceX/Seattle
Mission
Operational spacecraft
Bus & Motor
STARLINK V2MO, Unknown motor
Mass
575 kg wet, ~530 kg dry
Launch date (UTC)
2026-03-02 (1 month ago)
Launch vehicle
FALCON 9
Launch site
Air Force Eastern Test Range (AFETR)
Object type
Payload
Rocket body
Debris
Shape & HBR
Unknown shape, 17.7 m
Radar Cross Section
RCS unknown

Expand to show TLE details & history
Last TLE update: 11 hours ago

TLE from 11 hours ago
0 STARLINK-36924
1 68054U 26041Q   26105.11289461  .00046386  00000-0  83592-3 0  9999
2 68054  53.1601 242.2262 0000334  82.7608 277.3439 15.49350009  6942
Epoch: 2026-04-15T02:42Z
TLE epoch observation values (Epoch: 2026-04-15T02:42:34.094Z)
Latitude
-0.00002°
Longitude
-1.69533°
Altitude
419.505 km
Speed
7.661 km/s
True Right ascension
16h 08m 54s
True Declination
0° 00' 00"
Sunlit
Object was in full shadow at epoch
Visualization orbit readout
Latitude
Unknown
Longitude
Unknown
Altitude
Unknown
Speed
Unknown
Apparent Right ascension
Unknown
Apparent Declination
Unknown
Sunlit
N/A
Visualization observer readout
Local Sidereal Time
20:42:52
Azimuth
Unknown
Elevation
Unknown
Doppler factor
Unknown
Orbital elements
Apogee altitude
419.112 km
Perigee altitude
418.658 km
Semi-major axis
6,797.022 km
Eccentricity
0.00003
Inclination
53.1601°
RAAN
242.2262°
Arg. of periapsis
82.7608°
True anomaly
277.3401°
Mean anomaly
277.3439°
Eccentric anomaly
277.342°
Mean motion
3.87316 °/min
Orbital period
92.95 mins
BSTAR
0.00083592
Loading maneuver chart data...
Computing Atmospheric mass density...
Loading historical data...
Loading historical data...
Loading historical data...
Loading historical data...
Loading historical data...
Loading historical data...
Loading historical data...

Documentation

Showing up to 5 results
|